When you browse on this site, cookies collect data to enhance your experience and personalize the content and advertising you see.
Visit our Privacy Policy to learn more. By continuing to use the site, you agree to this use of cookies and data.
  • în România
  • Lista ţărilor
  • Pe 7 zile
  • Temperatura apei
  • Hartă satelitară
  • Meteo pe hartă
  • Widget-uri
  • user-avatar
    Intrare

    Meteo pe oră la Świdwin

    Astăzi, 26 Aprilie, Vineri

    Timp Temperatura Precipitaţii Vânt Presiune Umiditate
    00:00 +13°C° 0 mm 3 m/s 749 mmHg 90%
    01:00 +14°C° 0 mm 2 m/s 749 mmHg 93%
    02:00 +14°C° 0.1 mm 2 m/s 749 mmHg 93%
    03:00 +14°C° 0.1 mm 2 m/s 749 mmHg 92%
    04:00 +14°C° 0.1 mm 2 m/s 748 mmHg 92%
    05:00 +14°C° 0 mm 3 m/s 748 mmHg 87%
    06:00 +17°C° 0 mm 3 m/s 748 mmHg 82%
    07:00 +18°C° 0 mm 3 m/s 748 mmHg 76%
    08:00 +20°C° 0.2 mm 3 m/s 748 mmHg 70%
    09:00 +22°C° 0.2 mm 4 m/s 747 mmHg 64%
    10:00 +23°C° 0.2 mm 4 m/s 747 mmHg 58%
    11:00 +25°C° 0.2 mm 4 m/s 747 mmHg 52%
    12:00 +26°C° 0.2 mm 4 m/s 747 mmHg 46%
    13:00 +27°C° 0.2 mm 4 m/s 746 mmHg 40%
    14:00 +27°C° 0 mm 4 m/s 746 mmHg 41%
    15:00 +27°C° 0 mm 4 m/s 746 mmHg 41%
    16:00 +27°C° 0 mm 3 m/s 745 mmHg 42%
    17:00 +26°C° 0 mm 3 m/s 745 mmHg 48%
    18:00 +24°C° 0 mm 3 m/s 745 mmHg 54%
    19:00 +21°C° 0 mm 2 m/s 745 mmHg 60%
    20:00 +20°C° 0.1 mm 3 m/s 745 mmHg 64%
    21:00 +19°C° 0.1 mm 3 m/s 746 mmHg 69%
    22:00 +18°C° 0.1 mm 3 m/s 746 mmHg 74%
    23:00 +16°C° 0.8 mm 3 m/s 746 mmHg 81%

    Mâine, 27 Aprilie, Sâmbătă

    Timp Temperatura Precipitaţii Vânt Presiune Umiditate
    00:00 +14°C° 0.8 mm 4 m/s 746 mmHg 87%
    01:00 +12°C° 0.8 mm 5 m/s 746 mmHg 94%
    02:00 +12°C° 0.3 mm 5 m/s 746 mmHg 94%
    03:00 +10°C° 0.3 mm 5 m/s 746 mmHg 93%
    04:00 +10°C° 0.3 mm 5 m/s 746 mmHg 93%
    05:00 +9°C° 0 mm 6 m/s 747 mmHg 92%
    06:00 +9°C° 0 mm 6 m/s 747 mmHg 92%
    07:00 +8°C° 0 mm 6 m/s 747 mmHg 91%
    08:00 +8°C° 0.1 mm 6 m/s 748 mmHg 91%
    09:00 +8°C° 0.1 mm 6 m/s 748 mmHg 90%
    10:00 +8°C° 0.1 mm 6 m/s 748 mmHg 89%
    11:00 +9°C° 0 mm 5 m/s 748 mmHg 85%
    12:00 +10°C° 0 mm 5 m/s 748 mmHg 81%
    13:00 +10°C° 0 mm 5 m/s 748 mmHg 77%
    14:00 +12°C° 0 mm 4 m/s 748 mmHg 70%
    15:00 +13°C° 0 mm 4 m/s 748 mmHg 64%
    16:00 +14°C° 0 mm 4 m/s 748 mmHg 57%
    17:00 +13°C° 0 mm 3 m/s 748 mmHg 62%
    18:00 +13°C° 0 mm 2 m/s 749 mmHg 67%
    19:00 +12°C° 0 mm 1 m/s 749 mmHg 72%
    20:00 +11°C° 0 mm 1 m/s 749 mmHg 73%
    21:00 +10°C° 0 mm 1 m/s 749 mmHg 74%
    22:00 +9°C° 0 mm 1 m/s 749 mmHg 74%
    23:00 +9°C° 0 mm 1 m/s 749 mmHg 74%

    Poimâine, 28 Aprilie, Duminică

    Timp Temperatura Precipitaţii Vânt Presiune Umiditate
    00:00 +9°C° 0 mm 1 m/s 749 mmHg 74%
    01:00 +9°C° 0 mm 1 m/s 750 mmHg 74%
    02:00 +8°C° 0 mm 2 m/s 750 mmHg 79%
    03:00 +8°C° 0 mm 2 m/s 750 mmHg 83%
    04:00 +7°C° 0 mm 2 m/s 750 mmHg 88%
    05:00 +8°C° 0 mm 3 m/s 750 mmHg 87%
    06:00 +7°C° 0 mm 4 m/s 751 mmHg 87%
    07:00 +8°C° 0 mm 4 m/s 751 mmHg 86%
    08:00 +8°C° 0 mm 4 m/s 751 mmHg 83%
    09:00 +10°C° 0 mm 4 m/s 752 mmHg 79%
    10:00 +11°C° 0 mm 4 m/s 752 mmHg 75%
    11:00 +12°C° 0 mm 4 m/s 752 mmHg 72%
    12:00 +13°C° 0 mm 4 m/s 753 mmHg 68%
    13:00 +13°C° 0 mm 4 m/s 753 mmHg 64%
    14:00 +13°C° 0 mm 4 m/s 753 mmHg 64%
    15:00 +13°C° 0 mm 4 m/s 753 mmHg 65%
    16:00 +13°C° 0 mm 4 m/s 753 mmHg 65%
    17:00 +12°C° 0 mm 3 m/s 753 mmHg 70%
    18:00 +11°C° 0 mm 3 m/s 753 mmHg 74%
    19:00 +9°C° 0 mm 3 m/s 754 mmHg 79%
    20:00 +9°C° 0.1 mm 3 m/s 754 mmHg 81%
    21:00 +8°C° 0.1 mm 2 m/s 754 mmHg 84%
    22:00 +8°C° 0.1 mm 2 m/s 754 mmHg 86%
    23:00 +8°C° 0.5 mm 3 m/s 754 mmHg 89%

    29 Aprilie, Luni

    Timp Temperatura Precipitaţii Vânt Presiune Umiditate
    00:00 +8°C° 0.5 mm 3 m/s 754 mmHg 91%
    01:00 +8°C° 0.5 mm 3 m/s 754 mmHg 94%
    02:00 +7°C° 1.1 mm 4 m/s 754 mmHg 94%
    03:00 +7°C° 1.1 mm 4 m/s 754 mmHg 95%
    04:00 +7°C° 1.1 mm 5 m/s 754 mmHg 96%
    05:00 +8°C° 0.4 mm 4 m/s 754 mmHg 95%
    06:00 +8°C° 0.4 mm 4 m/s 754 mmHg 95%
    07:00 +8°C° 0.4 mm 4 m/s 754 mmHg 95%
    08:00 +11°C° 0 mm 4 m/s 754 mmHg 92%
    09:00 +12°C° 0 mm 4 m/s 754 mmHg 89%
    10:00 +13°C° 0 mm 4 m/s 754 mmHg 86%
    11:00 +15°C° 0 mm 5 m/s 754 mmHg 75%
    12:00 +17°C° 0 mm 6 m/s 754 mmHg 64%
    13:00 +20°C° 0 mm 6 m/s 754 mmHg 53%
    14:00 +19°C° 0 mm 6 m/s 754 mmHg 52%
    15:00 +17°C° 0 mm 7 m/s 754 mmHg 52%
    16:00 +17°C° 0 mm 7 m/s 753 mmHg 52%
    17:00 +15°C° 0 mm 7 m/s 754 mmHg 56%
    18:00 +13°C° 0 mm 6 m/s 754 mmHg 61%
    19:00 +10°C° 0 mm 6 m/s 754 mmHg 65%
    20:00 +9°C° 0 mm 5 m/s 754 mmHg 66%
    21:00 +8°C° 0 mm 5 m/s 754 mmHg 66%
    22:00 +7°C° 0 mm 4 m/s 755 mmHg 67%
    23:00 +6°C° 0 mm 4 m/s 755 mmHg 70%

    30 Aprilie, Marţi

    Timp Temperatura Precipitaţii Vânt Presiune Umiditate
    00:00 +5°C° 0 mm 4 m/s 755 mmHg 73%
    01:00 +5°C° 0 mm 4 m/s 755 mmHg 75%
    02:00 +4°C° 0 mm 3 m/s 755 mmHg 78%
    03:00 +4°C° 0 mm 3 m/s 755 mmHg 81%
    04:00 +4°C° 0 mm 3 m/s 755 mmHg 83%
    05:00 +5°C° 0 mm 3 m/s 755 mmHg 79%
    06:00 +8°C° 0 mm 3 m/s 755 mmHg 74%
    07:00 +8°C° 0 mm 4 m/s 755 mmHg 69%
    08:00 +11°C° 0 mm 4 m/s 755 mmHg 63%
    09:00 +12°C° 0 mm 4 m/s 755 mmHg 56%
    10:00 +14°C° 0 mm 5 m/s 755 mmHg 49%
    11:00 +14°C° 0 mm 5 m/s 755 mmHg 48%
    12:00 +15°C° 0 mm 5 m/s 755 mmHg 47%
    13:00 +15°C° 0 mm 5 m/s 755 mmHg 46%
    14:00 +15°C° 0 mm 5 m/s 755 mmHg 48%
    15:00 +15°C° 0 mm 5 m/s 754 mmHg 49%
    16:00 +14°C° 0 mm 5 m/s 754 mmHg 51%
    17:00 +12°C° 0 mm 5 m/s 754 mmHg 57%
    18:00 +11°C° 0 mm 4 m/s 754 mmHg 62%
    19:00 +9°C° 0 mm 3 m/s 754 mmHg 67%
    20:00 +8°C° 0 mm 3 m/s 754 mmHg 69%
    21:00 +7°C° 0 mm 2 m/s 754 mmHg 71%
    22:00 +6°C° 0 mm 2 m/s 754 mmHg 73%
    23:00 +6°C° 0 mm 2 m/s 754 mmHg 72%

    1 Mai, Miercuri

    Timp Temperatura Precipitaţii Vânt Presiune Umiditate
    00:00 +7°C° 0 mm 1 m/s 754 mmHg 70%
    01:00 +7°C° 0 mm 1 m/s 753 mmHg 69%
    02:00 +6°C° 0 mm 1 m/s 753 mmHg 69%
    03:00 +6°C° 0 mm 1 m/s 753 mmHg 69%
    04:00 +5°C° 0 mm 0 m/s 753 mmHg 70%
    05:00 +7°C° 0 mm 1 m/s 753 mmHg 67%
    06:00 +8°C° 0 mm 1 m/s 752 mmHg 64%
    07:00 +8°C° 0 mm 2 m/s 752 mmHg 61%
    08:00 +10°C° 0 mm 2 m/s 752 mmHg 57%
    09:00 +12°C° 0 mm 3 m/s 752 mmHg 54%
    10:00 +13°C° 0 mm 3 m/s 752 mmHg 51%
    11:00 +13°C° 0 mm 3 m/s 751 mmHg 52%
    12:00 +13°C° 0 mm 3 m/s 751 mmHg 53%
    13:00 +14°C° 0 mm 2 m/s 751 mmHg 54%
    14:00 +14°C° 0 mm 3 m/s 750 mmHg 52%
    15:00 +16°C° 0 mm 3 m/s 750 mmHg 50%
    16:00 +16°C° 0 mm 3 m/s 749 mmHg 49%
    17:00 +15°C° 0 mm 2 m/s 749 mmHg 55%
    18:00 +14°C° 0 mm 2 m/s 748 mmHg 62%
    19:00 +13°C° 0 mm 1 m/s 748 mmHg 68%
    20:00 +12°C° 0 mm 1 m/s 748 mmHg 73%
    21:00 +12°C° 0 mm 2 m/s 747 mmHg 78%
    22:00 +10°C° 0 mm 2 m/s 747 mmHg 82%
    23:00 +10°C° 0 mm 3 m/s 747 mmHg 83%
    Arată mai mult